CZ-3C DEB, 39600

Orbit data source: Space-Track

CZ-3C DEB, 39600 is space debris in HEO originally from a launch on Sun, 31 Oct 2010 UTC launched from the Xichang Space Center, China (XSC). Debris objects in space refer to the collection of defunct objects orbiting the Earth. Examples of debris include non-operational satellites, rocket bodies, and fragments generated from explosions, collisions, or faulty payload assembly.

Loading next visibility...
Identifier
39600, 2010-057X
Orbit
HEO
Country
Flag of CNCN / PRC
Related business
Manufacturer
CALT
Mission
Spacecraft
Bus & Motor
Unknown
Mass
Unknown
Launch date (UTC)
2010-10-31 (15 years ago)
Launch vehicle
Unknown
Launch site
Xichang Space Center, China (XSC)
Object type
Payload
Rocket body
Debris
Shape & HBR
Unknown shape, 0.3 m
Radar Cross Section
Small (<0.1 m²)

Expand to show TLE details & history
Last TLE update: 2 days ago

TLE from 2 days ago
0 CZ-3C DEB
1 39600U 10057X   25347.41000457  .00000280  00000-0  13844-2 0  9995
2 39600  20.2913  40.2723 7228683 276.5642  12.9910  2.25251693 99053
Epoch: 2025-12-13T09:50Z
TLE epoch observation values (Epoch: 2025-12-13T09:50:24.394Z)
Latitude
0.00014°
Longitude
170.32049°
Altitude
4,491.165 km
Speed
7.558 km/s
True Right ascension
02h 41m 02s
True Declination
0° 00' 01"
Sunlit
Object was in daylight at epoch
Visualization orbit readout
Latitude
Unknown
Longitude
Unknown
Altitude
Unknown
Speed
Unknown
Apparent Right ascension
Unknown
Apparent Declination
Unknown
Sunlit
N/A
Visualization observer readout
Local Sidereal Time
19:02:35
Azimuth
Unknown
Elevation
Unknown
Doppler factor
Unknown
Orbital elements
Apogee altitude
35,981.684 km
Perigee altitude
435.645 km
Semi-major axis
24,586.801 km
Eccentricity
0.72287
Inclination
20.2913°
RAAN
40.2723°
Arg. of periapsis
276.5642°
True anomaly
83.08535°
Mean anomaly
12.991°
Eccentric anomaly
39.12708°
Mean motion
0.56298 °/min
Orbital period
639.46 mins
BSTAR
0.0013844
Loading maneuver chart data...
Computing Atmospheric mass density...
Loading historical data...
Loading historical data...
Loading historical data...
Loading historical data...
Loading historical data...
Loading historical data...
Loading historical data...

Documentation

Showing up to 5 results
|